{"data":{"norad_id":38741,"intl_designator":"2012-043B","name":"HYLAS 2","alt_names":[],"object_type":"PAYLOAD","status":"ACTIVE","operator":null,"country":"UK","launch_date":"2012-08-02","launch_site_code":"FRGUI","launch_vehicle":null,"mission":null,"orbit_class":"UNKNOWN","rcs_meters":5.0119,"size_class":null,"mass_kg":null,"dimensions":null,"purposes":["comms"],"wikipedia_slug":null,"has_3d_model":false,"image_url":null,"decayed_at":null,"tle_current":{"epoch":"2026-09-20T03:09:28.554336Z","epoch_age_seconds":50139,"freshness":"FRESH","line1":"1 38741U 12043B   26263.13158049 -.00000087  00000+0  00000+0 0  9997","line2":"2 38741   2.6639  79.8034 0003701 157.6258 152.7408  1.00522478 51728","mean_motion":1.00522478,"eccentricity":0.0003701,"inclination_deg":2.6639,"raan_deg":79.8034,"arg_perigee_deg":157.6258,"mean_anomaly_deg":152.7408,"bstar":0,"rev_number":5172,"period_min":1432.5154220731,"perigee_km":35700.883497996,"apogee_km":35732.0419207,"semimajor_km":42094.599709348,"source":"CELESTRAK","updated_at":"2026-09-20T09:00:35.176341Z"}}}